{"data":{"norad_id":60388,"epoch":"2026-09-22T22:36:36.988992Z","epoch_age_seconds":72630,"freshness":"FRESH","line1":"1 60388U 24140K   26265.94209478  .00000046  00000+0  52697-4 0  9992","line2":"2 60388  88.9680 269.2182 0016791  76.2701 284.0318 13.51022020105832","mean_motion":13.5102202,"eccentricity":0.0016791,"inclination_deg":88.968,"raan_deg":269.2182,"arg_perigee_deg":76.2701,"mean_anomaly_deg":284.0318,"bstar":5.2697e-5,"rev_number":10583,"period_min":106.58597555649,"perigee_km":1055.9970208008,"apogee_km":1081.0043194245,"semimajor_km":7446.6376701126,"source":"CELESTRAK","updated_at":"2026-09-23T09:00:20.599214Z"}}